Location: Brivio
(45.7333°N, 9.4500°E)
Time: 00:31:13
(UTC+00:00)

STARLINK-35 - Pass Details

Date: 18 October 2019
Orbit: 548 x 551 km, 53.0° (Epoch: 12 November)

Event Time Altitude Azimuth Distance (km) Brightness Sun altitude
Rises 17:01:09 0° 257° (WSW) 2,710 9.8 -5.8°
Reaches altitude 10° 17:03:27 10° 263° (W) 1,819 8.2 -6.2°
Maximum altitude 17:07:27 47° 338° (NNW) 730 4.4 -6.9°
Drops below altitude 10° 17:11:28 10° 54° (NE) 1,826 5.8 -7.6°
Enters shadow 17:12:07 - 56° (NE) 2,071 6.0 -7.7°
